Regional Weather Roundup
Issued by NWS

Home | Current Version | Previous Version | Graphics & Text | Print | Product List | Glossary On
Versions: 1 2 3 4 5 6 7 8 9 10 11 12 13 14 15 16 17 18 19 20 21 22 23 24 25 26 27 28 29 30 31 32 33 34 35 36 37 38 39 40 41 42 43 44 45 46 47 48 49 50
000
ASUS43 KDTX 271001
RWRMI
MICHIGAN HOURLY REGIONAL WEATHER ROUNDUP
NATIONAL WEATHER SERVICE DETROIT/PONTIAC MI
600 AM EDT MON APR 27 2015

NOTE: "FAIR" INDICATES FEW OR NO CLOUDS BELOW 12,000 FEET WITH NO
SIGNIFICANT WEATHER AND/OR OBSTRUCTION TO VISIBILITY.

MIZ047>049-052>055-059>063-066>070-074>076-081>083-271100-
SOUTHEAST LOWER MICHIGAN

CITY           SKY/WX    TMP DP  RH WIND       PRES   REMARKS
ADRIAN         CLOUDY    41  33  73 N6        29.94S
ALMA           CLOUDY    42  33  71 NW7       29.97S
ANN ARBOR      CLOUDY    42  32  67 NW9       29.93S
BAD AXE        CLOUDY    37  35  93 N8        29.95R WCI  30
CARO           CLOUDY    38  36  90 N7        29.95S WCI  33
DETROIT CITY   CLOUDY    43  33  68 N6        29.92S
DETROIT        CLOUDY    44  33  65 NW8       29.93S
FLINT          LGT RAIN  42  36  79 N10       29.96R
HILLSDALE      CLOUDY    40  34  78 N5        29.94S
HOWELL         CLOUDY    40  33  76 NW8       29.93F WCI  35

CITY           SKY/WX    TMP DP  RH WIND       PRES   REMARKS
JACKSON        CLOUDY    39  32  76 NW7       29.95S WCI  34
LAMBERTVILLE   CLOUDY    41  34  75 CALM      29.93S
LANSING        CLOUDY    40  32  73 NW7       29.97S
LAPEER         DRIZZLE   38  36  92 N5        29.93S WCI  35
MASON          CLOUDY    40  32  74 N8        29.95S WCI  34
MONROE         CLOUDY    39  34  81 CALM      29.91S
PONTIAC        LGT RAIN  41  35  79 N10       29.91S
PORT HOPE        N/A     38  35  89 N12       29.94R WCI  30
PORT HURON     RAIN      37  36  93 N6        29.92S WCI  33
TRI CITIES     CLOUDY    42  39  89 CALM      29.97S
MIDLAND        CLOUDY    43  33  67 NW5       29.97R
TROY           CLOUDY    44  34  69 N8        29.93S
SAGINAW HB     CLOUDY    41  39  93 NE9       29.96S
$$
MIZ043>046-050>051-056>058-064>065-071>073-077>080-271100-
SOUTHWEST LOWER MICHIGAN

CITY           SKY/WX    TMP DP  RH WIND       PRES   REMARKS
BATTLE CREEK   CLOUDY    41  31  67 N7        29.98R
BENTON HARBOR  CLEAR     38  33  82 VRB6      30.02S WCI  33
BIG RAPIDS     CLOUDY    38  32  78 NW5       30.00R WCI  35
COLDWATER      CLOUDY    39  32  75 N5        29.96S
FREMONT        PTSUNNY   37  31  81 N7        30.01R WCI  31
HOLLAND        CLEAR     41  32  70 NW6       30.01F
GRAND RAPIDS   CLOUDY    40  30  67 NW7       29.99S
IONIA          CLOUDY    41  32  70 N7        29.97S
KALAMAZOO      CLOUDY    40  31  70 N9        29.99R WCI  34
LUDINGTON      CLOUDY    40  34  78 N9        30.05R WCI  35
MARSHALL       CLOUDY    39  32  74 NW6       29.96S WCI  35
MOUNT PLEASANT CLOUDY    42  32  70 NW3       29.98R
MUSKEGON       PTCLDY    40  31  70 NW8       30.02S WCI  34
SOUTH HAVEN    PTCLDY    39  34  80 N8        30.01S WCI  34
$$
MIZ016>042-271100-
NORTHERN LOWER MICHIGAN

CITY           SKY/WX    TMP DP  RH WIND       PRES   REMARKS
BEAVER ISLAND  CLOUDY    40  33  75 N5        30.05R
BELLAIRE       CLOUDY    41  33  74 CALM      30.03R
CADILLAC       CLOUDY    38  33  82 NW12      29.99R WCI  31
CHARLEVOIX     CLOUDY    38  35  87 N6        30.06R WCI  34
FRANKFORT      CLOUDY    42  32  68 N5        30.05F
GAYLORD        CLOUDY    38  33  82 VRB5      29.99R WCI  34
GRAYLING       CLOUDY    39  32  75 CALM      29.99S
HARBOR SPRINGS CLOUDY    40  33  75 N6        30.02S
HOUGHTON LAKE  CLOUDY    40  32  73 N7        29.98R
MANISTEE       CLOUDY    39  34  81 N6        30.05R WCI  35
OSCODA         DRIZZLE   39  36  87 N8        29.97R WCI  34
PELLSTON       CLOUDY    41  33  73 N9        30.03R
ROGERS CITY    CLOUDY    39  35  84 NW9       30.01R WCI  33
TRAVERSE CITY  CLOUDY    41  34  76 N8        30.02S
$$
MIZ007>008-015-271100-
EASTERN UPPER MICHIGAN

CITY           SKY/WX    TMP DP  RH WIND       PRES   REMARKS
KINROSS        CLOUDY    37  36  93 NW8       30.02R WCI  31
MACKINAC ISLAN CLOUDY    39  33  80 N8        30.02S WCI  34
NEWBERRY       CLOUDY    38  33  81 N7        30.04S WCI  33
S. S. MARIE    CLOUDY    41  32  70 N5        30.02R
$$
MIZ004>006-011>014-085-271100-
CENTRAL UPPER MICHIGAN

CITY           SKY/WX    TMP DP  RH WIND       PRES   REMARKS
MANISTIQUE     CLOUDY    39  34  82 N3        30.06S
ESCANABA       PTCLDY    36  27  69 NW6       30.09R WCI  31
MENOMINEE      CLEAR     37  27  65 NW6       30.09S WCI  33
SAWYER-GWINN   PTCLDY    34  28  78 N7        30.09S WCI  28
$$
MIZ001>003-009>011-084-271100-
WESTERN UPPER MICHIGAN

CITY           SKY/WX    TMP DP  RH WIND       PRES   REMARKS
IRON MOUNTAIN  CLEAR     34  26  72 NW5       30.10R WCI  30
HOUGHTON       CLEAR     32  28  85 NW10      30.13S WCI  24
COPPER HARBOR    N/A     37  29  72 N7        30.14R WCI  32
IRONWOOD       CLEAR     28  27  93 W3        30.16R
$$

ABBREVIATIONS USED IN REMARKS
   TC - TEMPERATURE IN CELSIUS
  WCI - WIND CHILL INDEX
   HX - HEAT INDEX
  VSB - VISIBILITY




USA.gov is the U.S. government's official web portal to all federal, state and local government web resources and services.